Time,TemperatureF,DewpointF,PressureIn,WindDirection,WindDirectionDegrees,WindSpeedMPH,WindSpeedGustMPH,Humidity,HourlyPrecipIn,Conditions,Clouds,dailyrainin,SoftwareType,DateUTC
2013-04-21 00:03:00,42.0,32.0,30.09,NNE,13,1.0,6.0,67,0.00,,,0.31,,2013-04-21 04:03:00,
2013-04-21 00:12:00,42.0,32.0,30.09,NNE,13,1.0,6.0,67,0.00,,,0.31,,2013-04-21 04:12:00,
2013-04-21 00:23:00,41.0,31.0,30.10,WNW,290,1.0,5.0,67,0.00,,,0.31,,2013-04-21 04:23:00,
2013-04-21 00:33:00,41.0,31.0,30.11,NNE,25,0.0,2.0,68,0.00,,,0.31,,2013-04-21 04:33:00,
2013-04-21 00:42:00,41.0,31.0,30.11,NNE,25,0.0,2.0,68,0.00,,,0.31,,2013-04-21 04:42:00,
2013-04-21 00:53:00,40.0,31.0,30.12,NNE,24,1.0,4.0,70,0.00,,,0.31,,2013-04-21 04:53:00,
2013-04-21 01:02:00,39.0,32.0,30.13,NNE,23,0.0,1.0,77,0.00,,,0.31,,2013-04-21 05:02:00,
2013-04-21 01:12:00,39.0,32.0,30.13,NNE,23,0.0,1.0,77,0.00,,,0.31,,2013-04-21 05:12:00,
2013-04-21 01:22:00,37.0,30.0,30.13,North,5,1.0,2.0,77,0.00,,,0.31,,2013-04-21 05:22:00,
2013-04-21 01:32:00,37.0,31.0,30.15,NNE,21,1.0,3.0,79,0.00,,,0.31,,2013-04-21 05:32:00,
2013-04-21 01:42:00,37.0,31.0,30.15,NNE,21,1.0,3.0,79,0.00,,,0.31,,2013-04-21 05:42:00,
2013-04-21 01:52:00,36.0,30.0,30.16,North,10,0.0,2.0,80,0.00,,,0.31,,2013-04-21 05:52:00,
2013-04-21 02:01:00,36.0,31.0,30.16,NNW,335,1.0,3.0,82,0.00,,,0.31,,2013-04-21 06:01:00,
2013-04-21 02:12:00,36.0,31.0,30.16,NNW,335,1.0,3.0,82,0.00,,,0.31,,2013-04-21 06:12:00,
2013-04-21 02:22:00,35.0,31.0,30.16,NNW,335,0.0,2.0,84,0.00,,,0.30,,2013-04-21 06:22:00,
2013-04-21 02:32:00,34.0,30.0,30.17,NNW,335,0.0,1.0,84,0.00,,,0.30,,2013-04-21 06:32:00,
2013-04-21 02:42:00,34.0,30.0,30.17,NNW,335,0.0,1.0,84,0.00,,,0.30,,2013-04-21 06:42:00,
2013-04-21 02:52:00,33.0,29.0,30.18,NNW,328,1.0,3.0,86,0.00,,,0.30,,2013-04-21 06:52:00,
2013-04-21 03:02:00,34.0,30.0,30.19,NNW,338,0.0,3.0,86,0.00,,,0.30,,2013-04-21 07:02:00,
2013-04-21 03:12:00,34.0,30.0,30.19,NNW,338,0.0,3.0,86,0.00,,,0.30,,2013-04-21 07:12:00,
2013-04-21 03:22:00,33.0,29.0,30.20,NNW,338,0.0,0.0,86,0.00,,,0.28,,2013-04-21 07:22:00,
2013-04-21 03:32:00,32.0,29.0,30.21,WNW,290,1.0,4.0,89,0.00,,,0.28,,2013-04-21 07:32:00,
2013-04-21 03:42:00,32.0,29.0,30.21,WNW,290,1.0,4.0,89,0.00,,,0.28,,2013-04-21 07:42:00,
2013-04-21 03:52:00,33.0,28.0,30.21,WNW,288,2.0,4.0,81,0.00,,,0.28,,2013-04-21 07:52:00,
2013-04-21 04:01:00,33.0,28.0,30.22,NW,313,1.0,2.0,81,0.00,,,0.28,,2013-04-21 08:01:00,
2013-04-21 04:12:00,33.0,28.0,30.22,NW,313,1.0,2.0,81,0.00,,,0.28,,2013-04-21 08:12:00,
2013-04-21 04:22:00,33.0,28.0,30.22,North,9,0.0,2.0,82,0.00,,,0.26,,2013-04-21 08:22:00,
2013-04-21 04:32:00,33.0,28.0,30.24,NNW,342,1.0,3.0,82,0.00,,,0.26,,2013-04-21 08:32:00,
2013-04-21 04:42:00,33.0,28.0,30.24,NNW,342,1.0,3.0,82,0.00,,,0.26,,2013-04-21 08:42:00,
2013-04-21 04:52:00,33.0,28.0,30.24,NW,318,3.0,5.0,82,0.00,,,0.26,,2013-04-21 08:52:00,
2013-04-21 05:02:00,32.0,27.0,30.25,West,279,1.0,3.0,82,0.00,,,0.26,,2013-04-21 09:02:00,
2013-04-21 05:12:00,32.0,27.0,30.25,West,279,1.0,3.0,82,0.00,,,0.26,,2013-04-21 09:12:00,
2013-04-21 05:21:00,33.0,26.0,30.27,WNW,300,3.0,8.0,75,0.00,,,0.24,,2013-04-21 09:21:00,
2013-04-21 05:32:00,33.0,25.0,30.27,West,264,3.0,6.0,73,0.00,,,0.24,,2013-04-21 09:32:00,
2013-04-21 05:43:00,33.0,25.0,30.27,West,264,3.0,6.0,73,0.00,,,0.24,,2013-04-21 09:43:00,
2013-04-21 05:53:00,34.0,25.0,30.28,NW,311,1.0,8.0,70,0.00,,,0.24,,2013-04-21 09:53:00,
2013-04-21 06:03:00,34.0,25.0,30.29,NNW,329,2.0,5.0,70,0.00,,,0.24,,2013-04-21 10:03:00,
2013-04-21 06:12:00,34.0,25.0,30.29,NNW,329,2.0,5.0,70,0.00,,,0.24,,2013-04-21 10:12:00,
2013-04-21 06:22:00,33.0,25.0,30.30,NW,326,0.0,2.0,72,0.00,,,0.23,,2013-04-21 10:22:00,
2013-04-21 06:32:00,33.0,26.0,30.32,NW,325,0.0,2.0,75,0.00,,,0.23,,2013-04-21 10:32:00,
2013-04-21 06:42:00,33.0,26.0,30.32,NW,325,0.0,2.0,75,0.00,,,0.23,,2013-04-21 10:42:00,
2013-04-21 06:52:00,34.0,27.0,30.34,WNW,284,3.0,6.0,74,0.00,,,0.23,,2013-04-21 10:52:00,
2013-04-21 07:03:00,35.0,27.0,30.35,West,267,5.0,8.0,72,0.00,,,0.23,,2013-04-21 11:03:00,
2013-04-21 07:12:00,35.0,27.0,30.35,West,267,5.0,8.0,72,0.00,,,0.23,,2013-04-21 11:12:00,
2013-04-21 07:22:00,37.0,27.0,30.35,WSW,252,4.0,11.0,68,0.00,,,0.19,,2013-04-21 11:22:00,
2013-04-21 07:34:00,37.0,27.0,30.36,NW,321,6.0,17.0,67,0.00,,,0.19,,2013-04-21 11:34:00,
2013-04-21 07:42:00,37.0,27.0,30.36,NW,321,6.0,17.0,67,0.00,,,0.19,,2013-04-21 11:42:00,
2013-04-21 07:52:00,38.0,27.0,30.37,WNW,302,6.0,16.0,64,0.00,,,0.19,,2013-04-21 11:52:00,
2013-04-21 08:02:00,39.0,27.0,30.38,West,266,3.0,14.0,62,0.00,,,0.19,,2013-04-21 12:02:00,
2013-04-21 08:12:00,39.0,27.0,30.38,West,266,3.0,14.0,62,0.00,,,0.19,,2013-04-21 12:12:00,
2013-04-21 08:22:00,39.0,25.0,30.38,WNW,282,5.0,17.0,56,0.00,,,0.16,,2013-04-21 12:22:00,
2013-04-21 08:32:00,40.0,25.0,30.39,West,265,7.0,17.0,55,0.00,,,0.16,,2013-04-21 12:32:00,
2013-04-21 08:42:00,40.0,25.0,30.39,West,265,7.0,17.0,55,0.00,,,0.16,,2013-04-21 12:42:00,
2013-04-21 08:52:00,40.0,25.0,30.39,ESE,103,5.0,16.0,54,0.00,,,0.16,,2013-04-21 12:52:00,
2013-04-21 09:01:00,41.0,25.0,30.40,WNW,292,4.0,16.0,53,0.00,,,0.16,,2013-04-21 13:01:00,
2013-04-21 09:12:00,41.0,25.0,30.40,WNW,292,4.0,16.0,53,0.00,,,0.16,,2013-04-21 13:12:00,
2013-04-21 09:22:00,41.0,25.0,30.40,West,263,7.0,14.0,52,0.00,,,0.12,,2013-04-21 13:22:00,
2013-04-21 09:32:00,41.0,25.0,30.41,WNW,291,4.0,17.0,52,0.00,,,0.12,,2013-04-21 13:32:00,
2013-04-21 09:42:00,41.0,25.0,30.41,WNW,291,4.0,17.0,52,0.00,,,0.12,,2013-04-21 13:42:00,
2013-04-21 09:52:00,42.0,25.0,30.42,West,273,7.0,13.0,51,0.00,,,0.12,,2013-04-21 13:52:00,
2013-04-21 10:02:00,43.0,26.0,30.43,NNE,30,5.0,18.0,51,0.00,,,0.12,,2013-04-21 14:02:00,
2013-04-21 10:11:00,43.0,26.0,30.43,NNE,30,5.0,18.0,51,0.00,,,0.12,,2013-04-21 14:11:00,
2013-04-21 10:22:00,43.0,28.0,30.43,NNW,333,5.0,12.0,55,0.00,,,0.09,,2013-04-21 14:22:00,
2013-04-21 10:32:00,44.0,27.0,30.44,North,360,5.0,14.0,50,0.00,,,0.09,,2013-04-21 14:32:00,
2013-04-21 10:42:00,44.0,27.0,30.44,North,360,5.0,14.0,50,0.00,,,0.09,,2013-04-21 14:42:00,
2013-04-21 10:52:00,44.0,26.0,30.44,West,280,7.0,15.0,49,0.00,,,0.09,,2013-04-21 14:52:00,
2013-04-21 11:02:00,44.0,24.0,30.44,WNW,285,7.0,19.0,45,0.00,,,0.09,,2013-04-21 15:02:00,
2013-04-21 11:11:00,44.0,24.0,30.44,WNW,285,7.0,19.0,45,0.00,,,0.09,,2013-04-21 15:11:00,
2013-04-21 11:22:00,44.0,24.0,30.45,NW,316,9.0,19.0,45,0.00,,,0.05,,2013-04-21 15:22:00,
2013-04-21 11:33:00,44.0,23.0,30.45,West,277,4.0,13.0,44,0.00,,,0.05,,2013-04-21 15:33:00,
2013-04-21 11:43:00,44.0,23.0,30.45,West,277,4.0,13.0,44,0.00,,,0.05,,2013-04-21 15:43:00,
2013-04-21 11:53:00,46.0,25.0,30.45,NE,41,6.0,13.0,44,0.00,,,0.05,,2013-04-21 15:53:00,
2013-04-21 12:03:00,45.0,25.0,30.45,NNE,30,5.0,14.0,45,0.00,,,0.05,,2013-04-21 16:03:00,
2013-04-21 12:13:00,45.0,25.0,30.45,NNE,30,5.0,14.0,45,0.00,,,0.05,,2013-04-21 16:13:00,
2013-04-21 12:23:00,45.0,23.0,30.46,NE,39,6.0,11.0,41,0.00,,,0.02,,2013-04-21 16:23:00,
2013-04-21 12:33:00,46.0,24.0,30.46,NE,36,6.0,16.0,41,0.00,,,0.02,,2013-04-21 16:33:00,
2013-04-21 12:42:00,46.0,24.0,30.46,NE,36,6.0,16.0,41,0.00,,,0.02,,2013-04-21 16:42:00,
2013-04-21 12:53:00,47.0,24.0,30.46,WNW,295,7.0,16.0,40,0.00,,,0.02,,2013-04-21 16:53:00,
2013-04-21 13:02:00,46.0,24.0,30.47,East,79,8.0,16.0,41,0.00,,,0.02,,2013-04-21 17:02:00,
2013-04-21 13:12:00,46.0,24.0,30.47,East,79,8.0,16.0,41,0.00,,,0.02,,2013-04-21 17:12:00,
2013-04-21 13:23:00,47.0,26.0,30.47,West,266,5.0,18.0,43,0.00,,,0.00,,2013-04-21 17:23:00,
2013-04-21 13:32:00,47.0,23.0,30.47,SW,215,7.0,13.0,39,0.00,,,0.00,,2013-04-21 17:32:00,
2013-04-21 13:42:00,47.0,23.0,30.47,SW,215,7.0,13.0,39,0.00,,,0.00,,2013-04-21 17:42:00,
2013-04-21 13:52:00,47.0,24.0,30.47,NNE,30,2.0,14.0,40,0.00,,,0.00,,2013-04-21 17:52:00,
2013-04-21 14:02:00,48.0,24.0,30.48,WNW,294,9.0,16.0,38,0.00,,,0.00,,2013-04-21 18:02:00,
2013-04-21 14:11:00,48.0,24.0,30.48,WNW,294,9.0,16.0,38,0.00,,,0.00,,2013-04-21 18:11:00,
2013-04-21 14:22:00,48.0,23.0,30.48,NE,46,7.0,14.0,37,0.00,,,0.00,,2013-04-21 18:22:00,
2013-04-21 14:32:00,48.0,22.0,30.48,West,266,10.0,16.0,36,0.00,,,0.00,,2013-04-21 18:32:00,
2013-04-21 14:42:00,48.0,22.0,30.48,West,266,10.0,16.0,36,0.00,,,0.00,,2013-04-21 18:42:00,
2013-04-21 14:52:00,49.0,21.0,30.48,WSW,250,7.0,16.0,33,0.00,,,0.00,,2013-04-21 18:52:00,
2013-04-21 15:02:00,49.0,23.0,30.48,WSW,255,12.0,18.0,36,0.00,,,0.00,,2013-04-21 19:02:00,
2013-04-21 15:12:00,49.0,23.0,30.48,WSW,255,12.0,18.0,36,0.00,,,0.00,,2013-04-21 19:12:00,
2013-04-21 15:22:00,50.0,24.0,30.48,SW,217,6.0,18.0,36,0.00,,,0.00,,2013-04-21 19:22:00,
2013-04-21 15:32:00,49.0,22.0,30.48,ENE,61,4.0,13.0,34,0.00,,,0.00,,2013-04-21 19:32:00,
2013-04-21 15:42:00,49.0,22.0,30.48,ENE,61,4.0,13.0,34,0.00,,,0.00,,2013-04-21 19:42:00,
2013-04-21 15:52:00,49.0,20.0,30.49,NNE,17,5.0,17.0,32,0.00,,,0.00,,2013-04-21 19:52:00,
2013-04-21 16:02:00,49.0,20.0,30.48,North,5,6.0,20.0,32,0.00,,,0.00,,2013-04-21 20:02:00,
2013-04-21 16:11:00,49.0,20.0,30.48,North,5,6.0,20.0,32,0.00,,,0.00,,2013-04-21 20:11:00,
2013-04-21 16:22:00,50.0,20.0,30.49,North,5,7.0,18.0,30,0.00,,,0.00,,2013-04-21 20:22:00,
2013-04-21 16:32:00,50.0,20.0,30.49,WSW,254,6.0,13.0,30,0.00,,,0.00,,2013-04-21 20:32:00,
2013-04-21 16:42:00,50.0,20.0,30.49,WSW,254,6.0,13.0,30,0.00,,,0.00,,2013-04-21 20:42:00,
2013-04-21 16:52:00,49.0,18.0,30.49,NNW,329,5.0,10.0,29,0.00,,,0.00,,2013-04-21 20:52:00,
2013-04-21 17:02:00,50.0,19.0,30.50,WSW,248,5.0,12.0,29,0.00,,,0.00,,2013-04-21 21:02:00,
2013-04-21 17:12:00,50.0,19.0,30.50,WSW,248,5.0,12.0,29,0.00,,,0.00,,2013-04-21 21:12:00,
2013-04-21 17:22:00,50.0,18.0,30.50,WNW,283,6.0,11.0,28,0.00,,,0.00,,2013-04-21 21:22:00,
2013-04-21 17:33:00,49.0,16.0,30.51,NNW,330,2.0,10.0,27,0.00,,,0.00,,2013-04-21 21:33:00,
2013-04-21 17:43:00,49.0,16.0,30.51,NNW,330,2.0,10.0,27,0.00,,,0.00,,2013-04-21 21:43:00,
2013-04-21 17:53:00,49.0,17.0,30.52,WNW,285,4.0,8.0,28,0.00,,,0.00,,2013-04-21 21:53:00,
2013-04-21 18:03:00,49.0,18.0,30.53,WNW,299,3.0,8.0,29,0.00,,,0.00,,2013-04-21 22:03:00,
2013-04-21 18:12:00,49.0,18.0,30.53,WNW,299,3.0,8.0,29,0.00,,,0.00,,2013-04-21 22:12:00,
2013-04-21 18:22:00,48.0,17.0,30.53,NNE,32,2.0,6.0,29,0.00,,,0.00,,2013-04-21 22:22:00,
2013-04-21 18:33:00,48.0,17.0,30.54,NE,52,3.0,8.0,29,0.00,,,0.00,,2013-04-21 22:33:00,
2013-04-21 18:43:00,48.0,17.0,30.54,NE,52,3.0,8.0,29,0.00,,,0.00,,2013-04-21 22:43:00,
2013-04-21 18:53:00,46.0,16.0,30.54,North,5,3.0,10.0,29,0.00,,,0.00,,2013-04-21 22:53:00,
2013-04-21 19:02:00,45.0,15.0,30.55,NNE,24,3.0,11.0,30,0.00,,,0.00,,2013-04-21 23:02:00,
2013-04-21 19:12:00,45.0,15.0,30.55,NNE,24,3.0,11.0,30,0.00,,,0.00,,2013-04-21 23:12:00,
2013-04-21 19:22:00,44.0,18.0,30.56,NE,49,1.0,4.0,35,0.00,,,0.00,,2013-04-21 23:22:00,
2013-04-21 19:32:00,43.0,20.0,30.57,NE,47,0.0,3.0,39,0.00,,,0.00,,2013-04-21 23:32:00,
2013-04-21 19:42:00,43.0,20.0,30.57,NE,47,0.0,3.0,39,0.00,,,0.00,,2013-04-21 23:42:00,
2013-04-21 19:52:00,41.0,19.0,30.59,North,349,0.0,2.0,41,0.00,,,0.00,,2013-04-21 23:52:00,
2013-04-21 20:01:00,40.0,18.0,30.60,NNE,26,0.0,2.0,41,0.00,,,0.00,,2013-04-22 00:01:00,
2013-04-21 20:12:00,40.0,18.0,30.60,NNE,26,0.0,2.0,41,0.00,,,0.00,,2013-04-22 00:12:00,
2013-04-21 20:22:00,39.0,20.0,30.61,NNW,329,1.0,2.0,47,0.00,,,0.00,,2013-04-22 00:22:00,
2013-04-21 20:32:00,38.0,20.0,30.62,NW,317,0.0,2.0,48,0.00,,,0.00,,2013-04-22 00:32:00,
2013-04-21 20:42:00,38.0,20.0,30.62,NW,317,0.0,2.0,48,0.00,,,0.00,,2013-04-22 00:42:00,
2013-04-21 20:52:00,37.0,23.0,30.63,NW,317,0.0,2.0,56,0.00,,,0.00,,2013-04-22 00:52:00,
2013-04-21 21:01:00,35.0,23.0,30.63,NW,317,0.0,0.0,61,0.00,,,0.00,,2013-04-22 01:01:00,
2013-04-21 21:12:00,35.0,23.0,30.63,NW,317,0.0,0.0,61,0.00,,,0.00,,2013-04-22 01:12:00,
2013-04-21 21:22:00,34.0,22.0,30.64,NW,317,1.0,2.0,60,0.00,,,0.00,,2013-04-22 01:22:00,
2013-04-21 21:32:00,34.0,25.0,30.65,NW,317,0.0,0.0,68,0.00,,,0.00,,2013-04-22 01:32:00,
2013-04-21 21:42:00,34.0,25.0,30.65,NW,317,0.0,0.0,68,0.00,,,0.00,,2013-04-22 01:42:00,
2013-04-21 21:52:00,32.0,23.0,30.65,NW,317,0.0,1.0,68,0.00,,,0.00,,2013-04-22 01:52:00,
2013-04-21 22:02:00,31.0,22.0,30.66,NW,317,0.0,0.0,70,0.00,,,0.00,,2013-04-22 02:02:00,
2013-04-21 22:11:00,31.0,22.0,30.66,NW,317,0.0,0.0,70,0.00,,,0.00,,2013-04-22 02:11:00,
2013-04-21 22:22:00,30.0,22.0,30.66,NW,317,0.0,2.0,73,0.00,,,0.00,,2013-04-22 02:22:00,
2013-04-21 22:32:00,31.0,23.0,30.66,WNW,292,1.0,3.0,73,0.00,,,0.00,,2013-04-22 02:32:00,
2013-04-21 22:42:00,31.0,23.0,30.66,WNW,292,1.0,3.0,73,0.00,,,0.00,,2013-04-22 02:42:00,
2013-04-21 22:52:00,30.0,23.0,30.67,WNW,292,0.0,0.0,75,0.00,,,0.00,,2013-04-22 02:52:00,
2013-04-21 23:02:00,29.0,23.0,30.67,WNW,292,0.0,0.0,79,0.00,,,0.00,,2013-04-22 03:02:00,
2013-04-21 23:11:00,29.0,23.0,30.67,WNW,292,0.0,0.0,79,0.00,,,0.00,,2013-04-22 03:11:00,
2013-04-21 23:22:00,29.0,23.0,30.67,WNW,292,0.0,0.0,79,0.00,,,0.00,,2013-04-22 03:22:00,
2013-04-21 23:33:00,29.0,23.0,30.68,WNW,292,0.0,0.0,79,0.00,,,0.00,,2013-04-22 03:33:00,
2013-04-21 23:43:00,29.0,23.0,30.68,WNW,292,0.0,0.0,79,0.00,,,0.00,,2013-04-22 03:43:00,
2013-04-21 23:53:00,29.0,23.0,30.68,WNW,292,0.0,0.0,78,0.00,,,0.00,,2013-04-22 03:53:00,